Atlantic City, NJ

10:41 AM EDT on May 20, 2018 (GMT -0400)
Atlantic City International

Weather History for KACY - July, 2012

Change the Weather History Date:

Monday, July 30, 2012

  Actual Average Record
Temperature  
Mean Temperature 74 °F 76 °F  
Max Temperature 82 °F 85 °F 98 °F (1917)
Min Temperature 65 °F 67 °F 53 °F (1968)
Degree Days  
Heating Degree Days 0 0  
Month to date heating degree days 0 0  
Since 1 June heating degree days 26 27  
Since 1 July heating degree days 0 0  
Cooling Degree Days 9 11  
Month to date cooling degree days 419 335  
Year to date cooling degree days 716 602  
Since 1 June cooling degree days 599 538  
Growing Degree Days 23 (Base 50)    
Moisture  
Dew Point 66 °F    
Average Humidity 78    
Maximum Humidity 93    
Minimum Humidity 62    
Precipitation  
Precipitation 0.00 in 0.13 in 2.45 in (1878)
Month to date precipitation 3.38 3.59  
Year to date precipitation 22.91 23.98  
Snow  
Snow 0.00 in 0.00 in 0.00 in ()
Month to date snowfall 0.0 0.0  
Since 1 June snowfall 0.0 0.0  
Since 1 July snowfall 0.0 0.0  
Snow Depth 0.00 in    
Sea Level Pressure  
Sea Level Pressure 30.09 in    
Wind  
Wind Speed 6 mph (East)    
Max Wind Speed 15 mph    
Max Gust Speed 20 mph    
Visibility 10 miles    
Events      
T = Trace of Precipitation, MM = Missing Value Source: NWS Daily Summary

Daily Weather History Graph

Daily Weather History Graph

Search for Another Location

Airport or City:

Astronomy

Jul. 30, 2012 Rise Set
Actual Time 5:56 AM EDT 8:12 PM EDT
Civil Twilight 5:26 AM EDT 8:42 PM EDT
Nautical Twilight 4:49 AM EDT 9:19 PM EDT
Astronomical Twilight 4:08 AM EDT 9:59 PM EDT
Moon 6:11 PM EDT (7/30) 3:09 AM EDT (7/30)
Length of Visible Light 15h 15m
Length of Day
14h 15m
Waxing Gibbous, 92% of the Moon is Illuminated
Jul 30
Waxing Gibbous
Aug 1
Full
Aug 9
Last Quarter
Aug 17
New
Aug 24
First Quarter

Hourly Weather History & Observations

Time (EDT) Temp. Heat Index Dew Point Humidity Pressure Visibility Wind Dir Wind Speed Gust Speed Precip Events Conditions
12:54 AM 68.0 °F - 64.9 °F 90% 30.05 in 10.0 mi Calm Calm - N/A   Clear
1:54 AM 66.9 °F - 64.9 °F 93% 30.05 in 10.0 mi Calm Calm - N/A   Clear
2:54 AM 66.9 °F - 64.9 °F 93% 30.05 in 10.0 mi Calm Calm - N/A   Partly Cloudy
3:54 AM 66.0 °F - 64.0 °F 93% 30.05 in 10.0 mi Calm Calm - N/A   Partly Cloudy
4:54 AM 66.9 °F - 64.9 °F 93% 30.06 in 9.0 mi Calm Calm - N/A   Clear
5:54 AM 66.0 °F - 64.0 °F 93% 30.08 in 7.0 mi Calm Calm - N/A   Clear
6:54 AM 66.0 °F - 64.9 °F 96% 30.08 in 6.0 mi Calm Calm - N/A   Clear
7:54 AM 73.0 °F - 69.1 °F 87% 30.10 in 10.0 mi Calm Calm - N/A   Clear
8:54 AM 77.0 °F - 68.0 °F 74% 30.11 in 10.0 mi East 6.9 mph - N/A   Partly Cloudy
9:54 AM 79.0 °F - 66.9 °F 66% 30.11 in 10.0 mi East 9.2 mph - N/A   Partly Cloudy
10:54 AM 78.1 °F - 66.0 °F 66% 30.12 in 10.0 mi ESE 9.2 mph - N/A   Scattered Clouds
11:54 AM 79.0 °F - 66.9 °F 66% 30.12 in 10.0 mi ESE 12.7 mph - N/A   Mostly Cloudy
12:26 PM 77.0 °F - 66.2 °F 69% 30.11 in 10.0 mi East 10.4 mph - N/A   Mostly Cloudy
12:54 PM 80.1 °F 82.3 °F 66.9 °F 64% 30.12 in 10.0 mi ESE 10.4 mph - N/A   Scattered Clouds
1:54 PM 80.1 °F 82.1 °F 66.0 °F 62% 30.11 in 10.0 mi East 10.4 mph - N/A   Mostly Cloudy
2:11 PM 78.8 °F - 66.2 °F 65% 30.11 in 10.0 mi East 12.7 mph - N/A   Mostly Cloudy
2:22 PM 78.8 °F - 66.2 °F 65% 30.11 in 10.0 mi ESE 10.4 mph - N/A   Mostly Cloudy
2:54 PM 80.1 °F 82.1 °F 66.0 °F 62% 30.10 in 10.0 mi ESE 11.5 mph - N/A   Scattered Clouds
3:54 PM 79.0 °F - 66.0 °F 64% 30.09 in 10.0 mi East 10.4 mph - N/A   Clear
4:54 PM 78.1 °F - 64.9 °F 64% 30.08 in 10.0 mi ESE 13.8 mph 19.6 mph N/A   Clear
5:54 PM 75.9 °F - 64.9 °F 69% 30.08 in 10.0 mi ESE 10.4 mph - N/A   Partly Cloudy
6:54 PM 75.9 °F - 66.0 °F 71% 30.08 in 10.0 mi SE 8.1 mph - N/A   Clear
7:54 PM 73.9 °F - 64.9 °F 73% 30.08 in 10.0 mi East 6.9 mph - N/A   Clear
8:54 PM 72.0 °F - 66.0 °F 81% 30.08 in 10.0 mi East 4.6 mph - N/A   Partly Cloudy
9:54 PM 72.0 °F - 66.0 °F 81% 30.08 in 10.0 mi East 3.5 mph - N/A   Partly Cloudy
10:54 PM 72.0 °F - 66.9 °F 84% 30.08 in 10.0 mi ENE 3.5 mph - N/A   Partly Cloudy
11:54 PM 71.1 °F - 66.9 °F 87% 30.08 in 10.0 mi ESE 3.5 mph - N/A   Clear